Regional Weather Roundup
Issued by NWS

Home | Current Version | Previous Version | Graphics & Text | Print | Product List | Glossary On
Versions: 1 2 3 4 5 6 7 8 9 10 11 12 13 14 15 16 17 18 19 20 21 22 23 24 25 26 27 28 29 30 31 32 33 34 35 36 37 38 39 40 41 42 43 44 45 46 47 48 49 50
000
ASUS43 KOAX 251402
RWRNE

WEATHER ROUNDUP FOR NEBRASKA
NATIONAL WEATHER SERVICE OMAHA NE
800 AM CST TUE NOV 25 2014

NOTES: SATELLITE DATA IS BEING USED TO AUGMENT CLOUD COVER ABOVE
       12000 FEET.
       "FAIR" INDICATES FEW OR NO CLOUDS BELOW 12,000 FEET WITH NO
       SIGNIFICANT WEATHER AND/OR OBSTRUCTIONS TO VISIBILITY.

  * THESE STATIONS DO NOT REPORT WEATHER SUCH AS RAIN...SNOW OR FOG.

NEZ001>004-019>022-054>056-251500-
NEBRASKA PANHANDLE

CITY           SKY/WX    TMP DP  RH WIND       PRES   REMARKS
SCOTTSBLUFF    CLOUDY    24  19  81 SE7       29.93F WCI  16
ALLIANCE       CLOUDY    27  18  69 SW9       29.91F WCI  18
CHADRON        CLOUDY    31  18  58 SW9       29.88F WCI  23
SIDNEY         CLOUDY    26  16  65 SW14      29.98F WCI  14
$$

NEZ057>060-069>072-079>082-251500-
SOUTHWEST NEBRASKA

CITY           SKY/WX    TMP DP  RH WIND       PRES   REMARKS
NORTH PLATTE   MOCLDY    18  14  84 CALM      30.05F
IMPERIAL       MOCLDY    21  14  74 W8        30.06F WCI  11
LEXINGTON      PTCLDY    14  12  90 NW3       30.08F
MCCOOK         PTCLDY    19  15  84 W8        30.10F WCI   9
$$

NEZ005>010-023>029-035>040-094-251500-
NORTH CENTRAL NEBRASKA

CITY           SKY/WX    TMP DP  RH WIND       PRES   REMARKS
VALENTINE      CLOUDY    24  21  88 SW7       29.95F WCI  16
AINSWORTH      MOCLDY    24  20  87 SW5       29.97F WCI  18
BROKEN BOW     PTCLDY    22  17  81 SW5       30.04F WCI  16
ORD            CLEAR     18  14  84 CALM      30.04F
$$

NEZ041-046>049-061>064-073>077-083>087-251500-
SOUTH CENTRAL NEBRASKA

CITY           SKY/WX    TMP DP  RH WIND       PRES   REMARKS
GRAND ISLAND   CLEAR     22  18  85 SW9       30.10S WCI  12
HASTINGS       CLEAR     22  18  85 SW5       30.10F WCI  16
KEARNEY *      FAIR      21  18  86 SW9       30.10F WCI  11
YORK           CLEAR     19  18  93 SW6       30.10F WCI  11
$$

NEZ011>018-030>034-042>045-251500-
NORTHEAST NEBRASKA

CITY           SKY/WX    TMP DP  RH WIND       PRES   REMARKS
NORFOLK        PTCLDY    18  13  80 CALM      30.05F
BLAIR          CLEAR     17  10  73 S5        30.11S WCI  10
COLUMBUS *     CLEAR     16   7  67 CALM      30.10F
TEKAMAH        CLEAR     13   6  74 S7        30.13S WCI   3
$$

NEZ050>053-065>068-078-088>093-251500-
SOUTHEAST NEBRASKA

CITY           SKY/WX    TMP DP  RH WIND       PRES   REMARKS
LINCOLN        CLEAR     17  11  77 S5        30.16F WCI  10
OMAHA EPPLEY   PTCLDY    19  11  70 SE3       30.15S
FALLS CITY     CLEAR     20  10  65 W9        30.19R WCI   9
NEBRASKA CITY  CLEAR     17   9  70 W6        30.16R WCI   8
$$

NEZ044-045-051>053-067-251500-
OMAHA AREA

CITY           SKY/WX    TMP DP  RH WIND       PRES   REMARKS
OMAHA EPPLEY   PTCLDY    19  11  70 SE3       30.15S
BLAIR          CLEAR     17  10  73 S5        30.11S WCI  10
MILLARD        CLEAR     18  12  76 CALM      30.15S
OFFUTT AFB     CLEAR     17  10  71 CALM      30.14S
WAHOO          FAIR      16  10  79 S3        30.12F
$$



USA.gov is the U.S. government's official web portal to all federal, state and local government web resources and services.